This is the latest recevied weather packets stored in our database for station/object CE7LGA-10. If no packets are shown the sender has not sent any weather packets the latest 10 day(s).
| Time | Temp. | Humidity | Pressure | Rain* | Wind** | Luminosity | Snow |
|---|---|---|---|---|---|---|---|
| 1778031430 | 17.22° C | 72% | 996.9 hPa | - | - | - | - |
| 1778030530 | 17.78° C | 72% | 997 hPa | - | - | - | - |
| 1778029630 | 17.78° C | 72% | 997.1 hPa | - | - | - | - |
| 1778028729 | 17.78° C | 73% | 996.8 hPa | - | - | - | - |
| 1778027832 | 17.78° C | 74% | 997.1 hPa | - | - | - | - |
| 1778026932 | 17.78° C | 75% | 997.2 hPa | - | - | - | - |
| 1778026032 | 17.22° C | 75% | 997.1 hPa | - | - | - | - |
| 1778025132 | 17.22° C | 75% | 997 hPa | - | - | - | - |
| 1778024231 | 16.67° C | 74% | 996.9 hPa | - | - | - | - |
| 1778023331 | 16.67° C | 74% | 996.7 hPa | - | - | - | - |
| 1778022431 | 17.78° C | 73% | 996.7 hPa | - | - | - | - |
| 1778021531 | 17.22° C | 73% | 996.6 hPa | - | - | - | - |
| 1778020631 | 17.22° C | 73% | 996.4 hPa | - | - | - | - |
| 1778019731 | 17.22° C | 75% | 996.6 hPa | - | - | - | - |
| 1778018831 | 17.22° C | 77% | 996.4 hPa | - | - | - | - |
| 1778017931 | 16.67° C | 77% | 996.5 hPa | - | - | - | - |
| 1778017031 | 15.56° C | 74% | 996.5 hPa | - | - | - | - |
| 1778016131 | 16.11° C | 74% | 996.6 hPa | - | - | - | - |
| 1778015231 | 16.67° C | 76% | 996.8 hPa | - | - | - | - |
| 1778014331 | 16.67° C | 75% | 996.8 hPa | - | - | - | - |
| 1778013431 | 16.11° C | 73% | 996.9 hPa | - | - | - | - |
| 1778012530 | 16.11° C | 73% | 996.7 hPa | - | - | - | - |
| 1778011630 | 16.11° C | 74% | 996.3 hPa | - | - | - | - |
| 1778010730 | 16.11° C | 73% | 996.4 hPa | - | - | - | - |
| 1778009830 | 16.11° C | 73% | 996.5 hPa | - | - | - | - |
* Rain since midnight (hover to see other rain measurements)
** Current wind speed in m/s (hover to see current wind gust speed)